Flag for United Kingdom Weather past 2 weeks in Slough, England, United Kingdom

Now
70 °F

Mild.


Feels Like: 70 °F
Forecast: 61 / 79 °F
Wind: 7 mph from Northeast

Location: London City Airport

Current Time: Jul 25, 2014 at 12:15:54 AM

Latest Report: Jul 24, 2014 at 11:50 PM


Visibility: N/A

Pressure: 30.04 "Hg

Humidity: 60%

Dew point: 55 °F

Location of SloughLocation

Historic Weather in Slough — Graph

°F

Slough temperature yesterday

Maximum temperature yesterday: 82 °F (at 1:20 PM)
Minimum temperature yesterday: 63 °F (at 3:50 AM)
Average temperature yesterday: 73 °F

Past Weeks' High & Low Weather Summary

 TemperatureHumidityPressure
High88 °F (Jul 18, 1:50 PM)100% (Jul 13, 6:20 AM)30.21 "Hg (Jul 13, 6:20 AM)
Low57 °F (Jul 11, 3:50 AM)30% (Jul 24, 6:20 PM)29.71 "Hg (Jul 13, 12:20 PM)
Average70 °F70%29.99 "Hg
* Reported Jul 9 11:20 PM — Jul 24 11:20 PM, Slough, Weather by CustomWeather, © 2014

Note: Actual official high and low records may vary slightly from our data, if they occured in-between our weather recording intervals... More about our weather records

Advertising

Slough weather history for previous 24 hours

 ConditionsComfort  
Time TempWeatherWind HumidityBarometerVisibility
11:20 PM
Jul 24
70 °FMild.7 mph60%30.07 "HgN/A
10:50 PM72 °FMild.8 mph61%30.04 "HgN/A
10:20 PM72 °FMild.10 mph61%30.04 "HgN/A
9:50 PM73 °FMild.9 mph57%30.04 "HgN/A
8:50 PM73 °FSunny.10 mph57%30.04 "Hg10 mi
8:20 PM75 °FSunny.12 mph50%30.01 "Hg10 mi
7:50 PM77 °FSunny.14 mph47%30.01 "Hg10 mi
7:20 PM77 °FSunny.15 mph44%30.01 "Hg10 mi
6:50 PM79 °FSunny.15 mph37%30.01 "Hg10 mi
6:20 PM81 °FSunny.15 mph30%30.01 "Hg10 mi
5:50 PM81 °FSunny.17 mph32%30.01 "Hg10 mi
5:20 PM81 °FSunny.18 mph32%30.01 "Hg10 mi
4:50 PM81 °FSunny.16 mph39%30.01 "Hg10 mi
4:20 PM81 °FSunny.14 mph39%30.01 "Hg10 mi
3:50 PM81 °FSunny.17 mph39%30.01 "Hg10 mi
3:20 PM81 °FPassing clouds.15 mph39%30.01 "HgN/A
2:50 PM81 °FSunny.18 mph42%30.04 "Hg10 mi
2:20 PM81 °FSunny.17 mph42%30.04 "Hg10 mi
1:50 PM82 °FSunny.16 mph42%30.04 "Hg10 mi
1:20 PM82 °FSunny.14 mph42%30.04 "Hg10 mi
12:50 PM79 °FPassing clouds.10 mph51%30.04 "HgN/A
12:20 PM79 °FScattered clouds.12 mph51%30.04 "HgN/A
11:50 AM79 °FScattered clouds.12 mph51%30.04 "HgN/A
11:20 AM77 °FScattered clouds.8 mph61%30.04 "HgN/A
10:50 AM75 °FPassing clouds.6 mph65%30.04 "HgN/A
10:20 AM73 °FPassing clouds.6 mph69%30.04 "HgN/A
9:50 AM72 °FPassing clouds.7 mph69%30.04 "HgN/A
9:20 AM70 °FPassing clouds.6 mph73%30.04 "HgN/A
8:50 AM68 °FPassing clouds.6 mph78%30.07 "HgN/A
8:20 AM66 °FPassing clouds.6 mph83%30.07 "HgN/A
7:50 AM66 °FPassing clouds.7 mph78%30.07 "HgN/A
7:20 AM64 °FPassing clouds.8 mph83%30.07 "HgN/A
6:20 AM63 °FSunny.5 mph83%30.07 "Hg10 mi
5:50 AM63 °FMild.3 mph83%30.07 "HgN/A
5:20 AM63 °FMild.3 mph83%30.04 "HgN/A
4:50 AM63 °FMild.6 mph83%30.04 "HgN/A
4:20 AM63 °FMild.7 mph83%30.04 "HgN/A
3:50 AM63 °FMild.8 mph77%30.04 "HgN/A
3:20 AM64 °FMild.6 mph73%30.04 "HgN/A
2:50 AM64 °FMild.6 mph73%30.07 "HgN/A
2:20 AM66 °FMild.6 mph68%30.07 "HgN/A
1:50 AM68 °FMild.6 mph69%30.07 "HgN/A
1:20 AM68 °FMild.6 mph69%30.07 "HgN/A
12:50 AM70 °FMild.7 mph64%30.07 "HgN/A
12:20 AM70 °FMild.6 mph64%30.07 "HgN/A
Weather by CustomWeather, © 2014

See weather overviewHow to use our weather pages